Search your local weather  

 

Hazardous Weather Conditions

No active alerts for CHICAGO, ILLINOIS

Current Conditions: CHICAGO, ILLINOIS

Overcast


50.0 F

Last Updated on Oct 21 2021, 11:52 am CDT
Humidity: 80%
Wind Speed: W 12.7 G 19.6 mph
Barometer 29.90 in
Dewpoint: 44.1 F
Visibility: 10.00 mi
Precip: Trace
Heat Index: NA
Wind Chill: 45 F
Current conditions at:

Chicago / Wheeling, Pal-Waukee Airport, IL (KPWK)

Lat: 42.12083 Lon: -87.90472

Local Radar Image active severe weather and emergency alerts image image weather storm and storm spotter reports image weather observation monitoring service image
Local
Radar
Active
Alerts
Storm Reports Weather
Monitoring

5 Day Forecast for CHICAGO, ILLINOIS (60601)

Thursday

Chance of Rain
High 56 °F
Thursday
Night
Slight Chance of Rain
Low 45 °F
Friday

Mostly Cloudy

High 56 °F
Friday
Night
Mostly Cloudy

Low 45 °F
Saturday

Mostly Sunny

High 55 °F
Saturday
Night
Slight Chance of Showers
Low 48 °F
Sunday

Rain Showers Likely
High 57 °F
Sunday
Night
Rain

Low 51 °F
Monday

Chance of Rain
High 57 °F

Sign-up For Email & Text Message Weather Alert Notification Services



Advertise Here

Observation History for CHICAGO, ILLINOIS


Time Wind
(mph)
Vis
(mi)
Weather Precip (in) Temperature (F) Relative
Humidity
Wind
Chill
(F)
Heat
Index
(F)
Pressure
Air Dwpt altimeter
(in)
sea level
(mb)
11:52 am CDT W 12.7 G 19.6 10.00 Overcast Trace 50.0 44.1 80% 45 NA 29.90 1012.4
10:52 am CDT W 13.8 G 21.9 10.00 Overcast Trace 50.0 43.0 77% 45 NA 29.89 1011.9
9:52 am CDT W 15.0 G 23.0 10.00 Overcast -- 52.0 43.0 72% 47 NA 29.87 1011.3
8:52 am CDT SW 13.8 G 23.0 10.00 Overcast -- 54.0 44.1 69% 50 NA 29.84 1010.5
7:52 am CDT W 10.4 10.00 Overcast -- 54.0 46.0 75% 51 NA 29.83 1010.1
6:52 am CDT SW 8.1 10.00 Overcast -- 54.0 46.0 75% 52 NA 29.82 1009.8
5:52 am CDT SW 10.4 10.00 Mostly Cloudy -- 54.0 46.9 77% 51 NA 29.83 1009.9
4:52 am CDT SW 9.2 10.00 Fair -- 56.0 46.9 72% 54 NA 29.82 1009.8
3:52 am CDT W 6.9 10.00 Fair -- 57.0 48.0 72% 56 NA 29.82 1009.6
2:52 am CDT W 11.5 G 17.3 10.00 Mostly Cloudy -- 61.0 53.1 75% 59 NA 29.83 1009.8
1:52 am CDT W 6.9 10.00 Fair -- 64.0 55.9 75% NA NA 29.83 1009.8
12:52 am CDT S 5.8 10.00 Overcast -- 66.0 57.0 73% NA NA 29.82 1009.6
11:52 pm CDT S 8.1 10.00 Overcast -- 67.0 55.9 68% NA NA 29.84 1010.2
10:52 pm CDT S 10.4 10.00 Overcast Trace 67.0 55.0 66% NA NA 29.86 1010.8
9:52 pm CDT S 10.4 10.00 Overcast -- 69.0 53.1 57% NA NA 29.87 1011.3
8:52 pm CDT S 9.2 10.00 Overcast -- 68.0 52.0 57% NA NA 29.87 1011.3
7:52 pm CDT S 12.7 10.00 Thunderstorm -- 69.0 51.1 53% NA NA 29.88 1011.8
6:52 pm CDT S 6.9 10.00 Thunderstorm in Vicinity -- 63.0 51.1 65% 63 NA 29.90 1012.4
5:52 pm CDT S 8.1 10.00 Fair -- 70.0 50.0 49% NA NA 29.91 1012.6
4:52 pm CDT S 9.2 10.00 Fair -- 72.0 51.1 48% NA NA 29.91 1012.7
3:52 pm CDT S 13.8 10.00 Fair -- 71.0 50.0 47% NA NA 29.92 1013.0
2:52 pm CDT S 15.0 10.00 Fair -- 71.0 51.1 49% NA NA 29.94 1013.7
1:52 pm CDT S 12.7 10.00 Fair -- 71.0 51.1 49% NA NA 29.97 1014.6
12:52 pm CDT S 10.4 10.00 Fair -- 70.0 51.1 51% NA NA 30.00 1015.8

Regional Weather Observation

Chicago, Chicago-OHare International Airport, IL (KORD)

Overcast
49.0 F

Chicago/Waukegan Regional Airport, IL (KUGN)

Fog/Mist
49.0 F

Chicago, Chicago Midway Airport, IL (KMDW)

Overcast
51.0 F

Schaumburg Regional Airport, IL (K06C)

NULL
48.0 F

Kenosha, Kenosha Regional Airport, WI (KENW)

Overcast
51.0 F

Chicago / West Chicago, Dupage Airport, IL (KDPA)

Overcast
49.0 F

Advertise Here


Advertise Here